User: anonymous   Login
Location: Caltech
(34.1382°N, 118.1253°W)
Time: 10:18:38
(UTC-08:00)
Language:

Cosmos 44 Rocket - Orbit

View from above orbital plane
View from above orbital plane
View from above satellite
View from above satellite

Ground track
Ground track

The orbit data is extracted from the following two-line orbital elements,

1 00877U 64053B   15024.39613371  .00000090  00000-0  43583-4 0  8507
2 00877 065.0804 327.9959 0049838 094.9691 265.7100 14.59015467673875
Epoch (UTC): 24 January 2015 09:30:25
Eccentricity: 0.0049838
inclination: 65.0804°
perigee height: 661 km
apogee height: 731 km
right ascension of ascending node: 327.9959°
argument of perigee: 94.9691°
revolutions per day: 14.59015467
mean anomaly at epoch: 265.7100°
orbit number at epoch: 67387

The dashed part of the orbit path shows where the satellite is in the earth's shadow,  

DLR